EST,Max TemperatureF,Mean TemperatureF,Min TemperatureF,Max Dew PointF,MeanDew PointF,Min DewpointF,Max Humidity, Mean Humidity, Min Humidity, Max Sea Level PressureIn, Mean Sea Level PressureIn, Min Sea Level PressureIn, Max VisibilityMiles, Mean VisibilityMiles, Min VisibilityMiles, Max Wind SpeedMPH, Mean Wind SpeedMPH, Max Gust SpeedMPH,PrecipitationIn, CloudCover, Events, WindDirDegrees
2012-11-1,67,51,35,30,23,16,64,39,14,29.97,29.89,29.86,10,10,10,16,9,22,0.00,0,,275
2012-11-2,77,56,34,46,38,28,89,58,27,30.01,29.95,29.87,10,10,10,22,5,29,0.00,0,,260
2012-11-3,79,59,38,52,43,38,100,64,28,30.12,30.04,29.99,10,9,1,9,1,15,0.00,0,,181
2012-11-4,84,65,45,57,51,45,100,67,34,30.01,29.97,29.89,10,9,2,22,7,30,0.00,0,,288
2012-11-5,66,56,45,49,43,39,93,65,37,30.08,30.01,29.96,10,10,10,14,4,17,0.00,2,,24
2012-11-6,52,44,35,42,38,33,92,71,50,30.03,29.98,29.94,10,10,9,18,6,26,0.01,6,Rain,46
2012-11-7,49,41,33,42,38,33,92,82,71,30.01,29.95,29.90,10,8,2,7,2,9,0.04,7,Rain,334
2012-11-8,67,49,31,42,34,27,100,61,22,30.17,30.07,30.01,10,5,0,13,2,16,0.00,0,Fog,313
2012-11-9,71,50,29,43,33,28,96,60,23,30.30,30.24,30.17,10,8,2,10,1,14,0.00,0,,205
2012-11-10,74,52,30,45,34,29,100,61,22,30.38,30.32,30.27,10,7,0,8,1,12,0.00,2,Fog,203
2012-11-11,76,56,36,55,47,36,92,69,46,30.46,30.38,30.35,10,9,6,10,1,17,0.00,4,,133
2012-11-12,76,63,49,63,55,50,100,81,61,30.35,30.28,30.18,10,5,0,20,4,24,0.03,4,Fog-Rain,171
2012-11-13,63,57,50,61,54,43,100,83,66,30.32,30.22,30.17,10,8,0,16,7,20,0.00,7,Fog,2
2012-11-14,54,51,47,43,39,36,77,64,50,30.40,30.33,30.27,10,10,4,15,9,21,0.04,8,Rain,49
2012-11-15,49,44,39,45,41,37,100,88,76,30.31,30.26,30.23,10,6,0,22,6,23,0.78,7,Rain-Thunderstorm,7
2012-11-16,60,48,36,43,41,35,100,75,49,30.33,30.28,30.25,10,9,6,14,5,17,0.00,4,,5
2012-11-17,62,49,36,37,32,26,100,64,27,30.42,30.37,30.33,10,10,7,17,8,25,0.00,2,,26
2012-11-18,62,56,50,45,40,33,63,55,46,30.38,30.33,30.28,10,10,10,17,11,23,0.00,7,,21
2012-11-19,70,57,44,49,46,44,86,67,47,30.28,30.23,30.17,10,10,5,18,8,24,T,5,Rain,11
2012-11-20,67,54,40,48,44,40,100,74,48,30.18,30.12,30.06,10,8,1,12,3,14,0.00,1,,338
2012-11-21,69,52,35,46,38,33,100,65,30,30.17,30.12,30.08,10,8,0,14,3,17,0.00,0,Fog,10
2012-11-22,68,50,31,39,34,30,100,62,24,30.27,30.21,30.16,10,10,7,13,3,15,0.00,0,,5
2012-11-23,73,51,29,48,36,28,100,66,31,30.19,30.12,29.98,10,6,0,18,4,23,0.00,1,Fog,252
2012-11-24,61,45,29,40,28,20,82,52,22,30.13,30.06,29.99,10,10,10,20,7,25,0.00,0,,306
2012-11-25,60,43,25,27,24,19,92,56,20,30.22,30.15,30.09,10,10,10,9,1,12,0.00,0,,218
2012-11-26,71,48,25,34,26,18,92,53,14,30.25,30.19,30.15,10,10,10,10,2,14,0.00,0,,205
2012-11-27,55,45,34,52,45,30,100,81,61,30.22,30.17,30.12,10,8,2,15,2,22,0.20,7,Rain,297
2012-11-28,60,47,34,52,43,34,100,75,49,30.40,30.31,30.19,10,6,0,13,4,18,0.00,5,Fog,35
2012-11-29,63,46,28,41,31,27,100,63,25,30.48,30.41,30.36,10,4,0,9,1,12,0.00,2,Fog,120
2012-11-30,67,50,32,49,41,31,100,73,45,30.41,30.36,30.30,10,10,8,6,0,9,0.00,4,,350